Phuket, Thailand

12:22 AM +07 on June 28, 2017 (GMT +0700)
Phuket International

Weather History for VTSP - December, 2013

Change the Weather History Date:

Monday, December 2, 2013

  Actual Average Record
Temperature  
Mean Temperature 78 °F -  
Max Temperature 88 °F 88 °F 95 °F (2001)
Min Temperature 69 °F 74 °F 69 °F (2007)
Cooling Degree Days 14    
Growing Degree Days 28 (Base 50)    
Moisture  
Dew Point 71 °F    
Average Humidity 73    
Maximum Humidity 94    
Minimum Humidity 54    
Precipitation  
Precipitation 0.00 in 0.09 in - ()
Sea Level Pressure  
Sea Level Pressure 29.84 in    
Wind  
Wind Speed 4 mph ()    
Max Wind Speed 12 mph    
Max Gust Speed -    
Visibility 5.3 miles    
Events      
Averages and records for this station are not official NWS values.
T = Trace of Precipitation, MM = Missing Value Source: Averaged Metar Reports

Daily Weather History Graph

Daily Weather History Graph

Search for Another Location

Airport or City:

Trip Planner

Search our weather history database for the weather conditions in past years. The results will help you decide how hot, cold, wet, or windy it might be!

Date:

Astronomy

Dec. 02, 2013 Rise Set
Actual Time 6:25 AM +07 6:06 PM +07
Civil Twilight 6:03 AM +07 6:29 PM +07
Nautical Twilight 5:37 AM +07 6:55 PM +07
Astronomical Twilight 5:11 AM +07 7:21 PM +07
Moon 5:26 AM +07 (12/2) 5:32 PM +07 (12/2)
Length of Visible Light 12h 26m
Length of Day
11h 41m
Waning Crescent, 1% of the Moon is Illuminated
Dec 2
Waning Crescent
Dec 3
New
Dec 9
First Quarter
Dec 17
Full
Dec 25
Last Quarter

Hourly Weather History & Observations

Time (+07) Temp. Heat Index Dew Point Humidity Pressure Visibility Wind Dir Wind Speed Gust Speed Precip Events Conditions
12:00 AM 78.8 °F - 71.6 °F 78% 29.89 in 5.0 mi NE 3.5 mph - N/A   Mostly Cloudy
12:30 AM 78.8 °F - 71.6 °F 78% 29.89 in - North - - N/A   Mostly Cloudy
1:00 AM 77 °F - 76 °F 94% 29.86 in 6 mi Calm Calm - -   Mist
1:30 AM 78.8 °F - 71.6 °F 78% 29.89 in 5.0 mi NE 3.5 mph - N/A   Mostly Cloudy
2:00 AM 75.2 °F - 71.6 °F 89% 29.86 in 5.0 mi Calm Calm - N/A   Mostly Cloudy
2:30 AM 73.4 °F - 69.8 °F 88% 29.86 in 5.0 mi Variable 1.2 mph - N/A   Mostly Cloudy
3:00 AM 75.2 °F - 69.8 °F 83% 29.86 in 5.0 mi Calm Calm - N/A   Mostly Cloudy
4:00 AM 73.4 °F - 69.8 °F 88% 29.83 in 5.0 mi Calm Calm - N/A   Mostly Cloudy
5:00 AM 73.4 °F - 69.8 °F 88% 29.83 in 5.0 mi Calm Calm - N/A   Mostly Cloudy
6:00 AM 73.4 °F - 69.8 °F 88% 29.83 in 5.0 mi Calm Calm - N/A   Mostly Cloudy
6:30 AM 73.4 °F - 69.8 °F 88% 29.83 in 5.0 mi Calm Calm - N/A   Mostly Cloudy
7:00 AM 74 °F - 72 °F 91% 29.81 in 6 mi Calm Calm - -   Scattered Clouds
7:00 AM 75.2 °F - 71.6 °F 89% 29.86 in 5.0 mi Calm Calm - N/A   Mostly Cloudy
7:30 AM 78.8 °F - 71.6 °F 78% 29.86 in 5.6 mi Variable 2.3 mph - N/A   Mostly Cloudy
8:00 AM 80.6 °F 84.6 °F 71.6 °F 74% 29.89 in 5.6 mi ENE 5.8 mph - N/A   Mostly Cloudy
8:30 AM 80.6 °F 84.6 °F 71.6 °F 74% 29.89 in 5.6 mi ENE 4.6 mph - N/A   Scattered Clouds
9:00 AM 82.4 °F 87.2 °F 71.6 °F 70% 29.89 in 5.6 mi Variable 4.6 mph - N/A   Scattered Clouds
9:30 AM 82.4 °F 87.2 °F 71.6 °F 70% 29.89 in 6.2 mi NE 5.8 mph - N/A   Scattered Clouds
10:00 AM 86 °F - 74 °F 60% 29.86 in 6 mi East 5.8 mph - -   Scattered Clouds
10:00 AM 84.2 °F 90.9 °F 73.4 °F 70% 29.89 in 6.2 mi NNE 6.9 mph - N/A   Scattered Clouds
10:30 AM 84.2 °F 89.6 °F 71.6 °F 66% 29.89 in 6.2 mi NE 9.2 mph - N/A   Scattered Clouds
11:00 AM 86.0 °F 91.8 °F 71.6 °F 62% 29.89 in 6.2 mi NE 9.2 mph - N/A   Scattered Clouds
11:30 AM 86.0 °F 91.8 °F 71.6 °F 62% 29.86 in 6.2 mi NNE 8.1 mph - N/A   Scattered Clouds
12:00 PM 86.0 °F 91.8 °F 71.6 °F 62% 29.86 in 6.2 mi NE 8.1 mph - N/A   Scattered Clouds
12:30 PM 86.0 °F 91.8 °F 71.6 °F 62% 29.83 in 5.6 mi ENE 9.2 mph - N/A   Scattered Clouds
1:00 PM 88 °F - 74 °F 54% 29.80 in 6 mi NE 5.8 mph - -   Scattered Clouds
1:00 PM 87.8 °F 93.8 °F 71.6 °F 58% 29.83 in 6.2 mi NE 9.2 mph - N/A   Scattered Clouds
1:30 PM 87.8 °F 93.8 °F 71.6 °F 58% 29.80 in 6.2 mi ENE 11.5 mph - N/A   Scattered Clouds
2:00 PM 87.8 °F 93.8 °F 71.6 °F 58% 29.80 in 6.2 mi ENE 10.4 mph - N/A   Scattered Clouds
2:30 PM 86.0 °F 91.8 °F 71.6 °F 62% 29.80 in 5.6 mi ENE 9.2 mph - N/A   Mostly Cloudy
3:00 PM 86.0 °F 91.8 °F 71.6 °F 62% 29.77 in 5.0 mi ENE 8.1 mph - N/A   Mostly Cloudy
3:30 PM 84.2 °F 89.6 °F 71.6 °F 66% 29.77 in 5.0 mi ENE 10.4 mph - N/A   Mostly Cloudy
4:00 PM 85 °F - 74 °F 61% 29.74 in 4 mi ENE 6.9 mph - -   Mist
4:00 PM 82.4 °F 87.2 °F 71.6 °F 70% 29.80 in 5.0 mi ENE 10.4 mph - N/A   Mostly Cloudy
4:30 PM 82.4 °F 86.3 °F 69.8 °F 66% 29.80 in 5.0 mi NE 6.9 mph - N/A   Mostly Cloudy
5:00 PM 80.6 °F 83.9 °F 69.8 °F 70% 29.80 in 5.0 mi NE 6.9 mph - N/A   Mostly Cloudy
5:30 PM 80.6 °F 83.9 °F 69.8 °F 70% 29.80 in 5.0 mi ENE 8.1 mph - N/A   Mostly Cloudy
6:00 PM 80.6 °F 83.9 °F 69.8 °F 70% 29.80 in 5.0 mi ENE 5.8 mph - N/A   Mostly Cloudy
6:30 PM 78.8 °F - 69.8 °F 74% 29.83 in 5.0 mi ENE 6.9 mph - N/A   Mostly Cloudy
7:00 PM 80 °F - 72 °F 69% 29.78 in 4 mi NE 6.9 mph - -   Mist
7:00 PM 78.8 °F - 69.8 °F 74% 29.83 in 5.0 mi ENE 5.8 mph - N/A   Mostly Cloudy
7:30 PM 78.8 °F - 69.8 °F 74% 29.83 in 5.0 mi ENE 6.9 mph - N/A   Mostly Cloudy
8:00 PM 78.8 °F - 69.8 °F 74% 29.86 in 5.0 mi ENE 9.2 mph - N/A   Mostly Cloudy
8:30 PM 78.8 °F - 69.8 °F 74% 29.86 in 5.0 mi ENE 6.9 mph - N/A   Mostly Cloudy
9:00 PM 78.8 °F - 69.8 °F 74% 29.89 in 5.0 mi ENE 10.4 mph - N/A   Mostly Cloudy
9:30 PM 78.8 °F - 69.8 °F 74% 29.89 in 5.0 mi ENE 11.5 mph - N/A   Mostly Cloudy
10:00 PM 79 °F - 72 °F 73% 29.85 in 5 mi East 6.9 mph - -   Mist
10:00 PM 78.8 °F - 69.8 °F 74% 29.89 in 5.0 mi ENE 8.1 mph - N/A   Mostly Cloudy
10:30 PM 78.8 °F - 69.8 °F 74% 29.89 in 5.0 mi ENE 8.1 mph - N/A   Mostly Cloudy
11:00 PM 78.8 °F - 69.8 °F 74% 29.89 in 5.0 mi NE 8.1 mph - N/A   Mostly Cloudy
11:30 PM 78.8 °F - 69.8 °F 74% 29.89 in 5.0 mi NE 6.9 mph - N/A   Mostly Cloudy